• In Netherlands
  • List of Countries
  • For 7 days
  • Water Temperature
  • Satellite Maps
  • Weather Map
  • Weather Widgets
  • user-avatar
    Login

    Hourly Weather Nakhchivan

    Today, 21 January, Saturday

    Time Temperature Precipitation Wind Pressure Humidity
    00:00 -6°C° 0 mm 0 mps 687 mmHg 90%
    01:00 -6°C° 0 mm 0 mps 687 mmHg 90%
    02:00 -6°C° 0 mm 0 mps 687 mmHg 90%
    03:00 -6°C° 0 mm 1 mps 687 mmHg 90%
    04:00 -6°C° 0 mm 1 mps 687 mmHg 90%
    05:00 -7°C° 0 mm 0 mps 687 mmHg 91%
    06:00 -7°C° 0 mm 0 mps 687 mmHg 91%
    07:00 -5°C° 0 mm 0 mps 687 mmHg 89%
    08:00 -4°C° 0 mm 0 mps 688 mmHg 87%
    09:00 -2°C° 0 mm 0 mps 688 mmHg 85%
    10:00 -1°C° 0 mm 0 mps 688 mmHg 82%
    11:00 +1°C° 0 mm 1 mps 688 mmHg 80%
    12:00 +2°C° 0 mm 1 mps 688 mmHg 77%
    13:00 +2°C° 0 mm 1 mps 688 mmHg 79%
    14:00 +2°C° 0 mm 1 mps 688 mmHg 80%
    15:00 +2°C° 0 mm 1 mps 687 mmHg 81%
    16:00 -1°C° 0 mm 1 mps 687 mmHg 85%
    17:00 -3°C° 0 mm 1 mps 687 mmHg 90%
    18:00 -6°C° 0 mm 0 mps 686 mmHg 94%
    19:00 -7°C° 0 mm 0 mps 686 mmHg 94%
    20:00 -7°C° 0 mm 0 mps 687 mmHg 94%
    21:00 -7°C° 0 mm 0 mps 687 mmHg 94%
    22:00 -8°C° 0 mm 0 mps 687 mmHg 93%
    23:00 -8°C° 0 mm 0 mps 687 mmHg 93%

    Tomorrow, 22 January, Sunday

    Time Temperature Precipitation Wind Pressure Humidity
    00:00 -8°C° 0 mm 0 mps 687 mmHg 93%
    01:00 -8°C° 0 mm 0 mps 687 mmHg 92%
    02:00 -9°C° 0 mm 0 mps 687 mmHg 92%
    03:00 -9°C° 0 mm 0 mps 687 mmHg 92%
    04:00 -9°C° 0 mm 0 mps 687 mmHg 92%
    05:00 -9°C° 0 mm 0 mps 687 mmHg 92%
    06:00 -9°C° 0 mm 0 mps 687 mmHg 91%
    07:00 -7°C° 0 mm 1 mps 687 mmHg 89%
    08:00 -6°C° 0 mm 1 mps 688 mmHg 86%
    09:00 -3°C° 0 mm 1 mps 688 mmHg 83%
    10:00 -2°C° 0 mm 1 mps 688 mmHg 79%
    11:00 0°C° 0 mm 1 mps 688 mmHg 76%
    12:00 +1°C° 0 mm 1 mps 688 mmHg 72%
    13:00 +1°C° 0 mm 1 mps 688 mmHg 74%
    14:00 +1°C° 0 mm 1 mps 688 mmHg 76%
    15:00 +1°C° 0 mm 1 mps 688 mmHg 77%
    16:00 -1°C° 0 mm 1 mps 688 mmHg 82%
    17:00 -4°C° 0 mm 1 mps 688 mmHg 86%
    18:00 -7°C° 0 mm 0 mps 689 mmHg 90%
    19:00 -7°C° 0 mm 0 mps 689 mmHg 90%
    20:00 -7°C° 0 mm 1 mps 689 mmHg 89%
    21:00 -8°C° 0 mm 1 mps 690 mmHg 89%
    22:00 -8°C° 0 mm 1 mps 690 mmHg 88%
    23:00 -8°C° 0 mm 1 mps 691 mmHg 88%

    Day after tomorrow, 23 January, Monday

    Time Temperature Precipitation Wind Pressure Humidity
    00:00 -9°C° 0 mm 1 mps 691 mmHg 88%
    01:00 -9°C° 0 mm 1 mps 691 mmHg 87%
    02:00 -9°C° 0 mm 1 mps 692 mmHg 87%
    03:00 -9°C° 0 mm 1 mps 692 mmHg 87%
    04:00 -9°C° 0 mm 1 mps 692 mmHg 87%
    05:00 -9°C° 0 mm 1 mps 692 mmHg 87%
    06:00 -9°C° 0 mm 1 mps 692 mmHg 87%
    07:00 -8°C° 0 mm 1 mps 693 mmHg 84%
    08:00 -6°C° 0 mm 1 mps 694 mmHg 82%
    09:00 -4°C° 0 mm 1 mps 694 mmHg 79%
    10:00 -2°C° 0 mm 1 mps 694 mmHg 75%
    11:00 -1°C° 0 mm 1 mps 694 mmHg 72%
    12:00 +1°C° 0 mm 1 mps 694 mmHg 69%
    13:00 +1°C° 0 mm 1 mps 694 mmHg 71%
    14:00 +1°C° 0 mm 1 mps 693 mmHg 74%
    15:00 +1°C° 0 mm 1 mps 693 mmHg 77%
    16:00 -2°C° 0 mm 1 mps 693 mmHg 81%
    17:00 -5°C° 0 mm 0 mps 692 mmHg 85%
    18:00 -7°C° 0 mm 0 mps 692 mmHg 89%
    19:00 -8°C° 0 mm 0 mps 692 mmHg 89%
    20:00 -8°C° 0 mm 0 mps 692 mmHg 88%
    21:00 -8°C° 0 mm 0 mps 693 mmHg 88%
    22:00 -9°C° 0 mm 0 mps 693 mmHg 87%
    23:00 -9°C° 0 mm 0 mps 693 mmHg 87%

    24 January, Tuesday

    Time Temperature Precipitation Wind Pressure Humidity
    00:00 -9°C° 0 mm 0 mps 693 mmHg 87%
    01:00 -9°C° 0 mm 0 mps 692 mmHg 86%
    02:00 -9°C° 0 mm 0 mps 692 mmHg 86%
    03:00 -9°C° 0 mm 0 mps 692 mmHg 86%
    04:00 -10°C° 0 mm 0 mps 692 mmHg 85%
    05:00 -10°C° 0 mm 0 mps 692 mmHg 84%
    06:00 -10°C° 0 mm 0 mps 692 mmHg 84%
    07:00 -8°C° 0 mm 1 mps 693 mmHg 80%
    08:00 -6°C° 0 mm 1 mps 694 mmHg 76%
    09:00 -3°C° 0 mm 1 mps 695 mmHg 72%
    10:00 -1°C° 0 mm 1 mps 695 mmHg 68%
    11:00 +1°C° 0 mm 1 mps 694 mmHg 64%
    12:00 +3°C° 0 mm 1 mps 694 mmHg 61%
    13:00 +2°C° 0 mm 1 mps 694 mmHg 64%
    14:00 +2°C° 0 mm 1 mps 693 mmHg 67%
    15:00 +2°C° 0 mm 1 mps 692 mmHg 71%
    16:00 -1°C° 0 mm 1 mps 692 mmHg 74%
    17:00 -3°C° 0 mm 1 mps 691 mmHg 78%
    18:00 -7°C° 0 mm 1 mps 691 mmHg 82%
    19:00 -7°C° 0 mm 1 mps 691 mmHg 78%
    20:00 -7°C° 0 mm 1 mps 691 mmHg 75%
    21:00 -7°C° 0 mm 1 mps 691 mmHg 72%
    22:00 -7°C° 0 mm 1 mps 691 mmHg 69%
    23:00 -7°C° 0 mm 1 mps 690 mmHg 67%

    25 January, Wednesday

    Time Temperature Precipitation Wind Pressure Humidity
    00:00 -7°C° 0 mm 1 mps 690 mmHg 65%
    01:00 -7°C° 0 mm 1 mps 690 mmHg 64%
    02:00 -7°C° 0 mm 1 mps 689 mmHg 63%
    03:00 -7°C° 0 mm 1 mps 689 mmHg 62%
    04:00 -7°C° 0 mm 1 mps 689 mmHg 61%
    05:00 -7°C° 0 mm 1 mps 688 mmHg 61%
    06:00 -7°C° 0 mm 1 mps 688 mmHg 60%
    07:00 -6°C° 0 mm 1 mps 688 mmHg 59%
    08:00 -5°C° 0 mm 2 mps 688 mmHg 58%
    09:00 -4°C° 0 mm 2 mps 689 mmHg 56%
    10:00 -2°C° 0 mm 2 mps 688 mmHg 57%
    11:00 +1°C° 0 mm 2 mps 688 mmHg 58%
    12:00 +3°C° 0 mm 2 mps 687 mmHg 59%
    13:00 +2°C° 0 mm 2 mps 686 mmHg 63%
    14:00 +3°C° 0 mm 1 mps 686 mmHg 66%
    15:00 +3°C° 0 mm 1 mps 685 mmHg 69%
    16:00 +2°C° 0 mm 1 mps 686 mmHg 68%
    17:00 -1°C° 0 mm 2 mps 686 mmHg 68%
    18:00 -2°C° 0 mm 2 mps 686 mmHg 67%
    19:00 -3°C° 0 mm 2 mps 686 mmHg 66%
    20:00 -3°C° 0 mm 2 mps 685 mmHg 65%
    21:00 -3°C° 0 mm 2 mps 685 mmHg 64%
    22:00 -3°C° 0 mm 2 mps 685 mmHg 65%
    23:00 -4°C° 0 mm 2 mps 685 mmHg 65%

    26 January, Thursday

    Time Temperature Precipitation Wind Pressure Humidity
    00:00 -4°C° 0 mm 2 mps 684 mmHg 66%
    01:00 -4°C° 0 mm 2 mps 684 mmHg 67%
    02:00 -4°C° 0 mm 2 mps 684 mmHg 68%
    03:00 -4°C° 0 mm 2 mps 684 mmHg 69%
    04:00 -3°C° 0.1 mm 2 mps 684 mmHg 72%
    05:00 -3°C° 0.1 mm 2 mps 684 mmHg 75%
    06:00 -3°C° 0.1 mm 2 mps 683 mmHg 77%
    07:00 -2°C° 0.1 mm 2 mps 683 mmHg 79%
    08:00 -1°C° 0.1 mm 2 mps 683 mmHg 80%
    09:00 +1°C° 0.1 mm 2 mps 683 mmHg 82%
    10:00 +1°C° 0.2 mm 2 mps 683 mmHg 82%
    11:00 +3°C° 0.2 mm 1 mps 683 mmHg 83%
    12:00 +4°C° 0.2 mm 1 mps 682 mmHg 83%
    13:00 +4°C° 0.2 mm 1 mps 682 mmHg 84%
    14:00 +4°C° 0.2 mm 1 mps 681 mmHg 85%
    15:00 +4°C° 0.2 mm 1 mps 681 mmHg 85%
    16:00 +3°C° 0.2 mm 1 mps 681 mmHg 87%
    17:00 +2°C° 0.2 mm 1 mps 681 mmHg 90%
    18:00 +1°C° 0.2 mm 1 mps 681 mmHg 92%
    19:00 +1°C° 0.2 mm 1 mps 682 mmHg 91%
    20:00 +1°C° 0.2 mm 1 mps 682 mmHg 91%
    21:00 +1°C° 0.2 mm 1 mps 682 mmHg 91%
    22:00 0°C° 0.2 mm 1 mps 682 mmHg 90%
    23:00 0°C° 0.2 mm 1 mps 682 mmHg 90%
    Show more